Dati Storici

Data ora Umidita' aria (%) Temperatura aria (°C) Rad globale (W/m²) Gonioanemometro (°) Tacoanemometro (m/s) Pioggia (mm)
24-06-2020 18:50 51 % 25.31 105.533 0.451 0 0
24-06-2020 18:40 49.4 % 26.082 63.187 0.576 0 0
24-06-2020 18:30 49.5 % 25.885 72.037 -0.042 0 0
24-06-2020 18:20 49.2 % 26.465 28.71 -0.044 0 0
24-06-2020 18:10 49.1 % 26.222 63.725 -0.044 0 0
24-06-2020 18:00 48.2 % 26.292 98.921 1.647 0 0
24-06-2020 17:50 47.2 % 26.371 73.127 1.216 0 0
24-06-2020 17:40 46.4 % 26.744 103.92 0.764 0 0
24-06-2020 17:30 46 % 27.413 126.212 0.498 0 0
24-06-2020 17:20 46.1 % 26.906 108.69 0.392 0 0
24-06-2020 17:10 44.2 % 26.897 136.789 2.121 0 0
24-06-2020 17:00 45.8 % 27.237 87.17 2.021 0 0
24-06-2020 16:50 46.5 % 26.898 93.335 -0.045 0 0
24-06-2020 16:40 46.7 % 27.011 123.784 1.081 0 0
24-06-2020 16:30 46.6 % 27.146 45.875 2.572 0 0
24-06-2020 16:20 45.3 % 26.812 73.676 1.352 0 0
24-06-2020 16:10 44.7 % 27.378 62.605 2.458 0 0
24-06-2020 16:00 44.7 % 26.964 102.953 3.621 0 0
24-06-2020 15:50 44 % 27.332 12.927 1.186 0 0
24-06-2020 15:40 42.5 % 27.649 127.268 1.643 0 0

I dati sono presentati in modo automatico a scopo informativo. In seguito a verifica i dati possono subire modifiche o essere invalidati e non riportati negli archivi definitivi.